This is the latest recevied weather packets stored in our database for station/object N5XJB. If no packets are shown the sender has not sent any weather packets the latest 10 day(s).
| Time | Temp. | Humidity | Pressure | Rain* | Wind** | Luminosity | Snow |
|---|---|---|---|---|---|---|---|
| 1778010345 | 28.89° C | 74% | 1009.7 hPa | 0 mm | - | 347 W/m² | - |
| 1778010040 | 29.44° C | 73% | 1009.7 hPa | 0 mm | - | 313 W/m² | - |
| 1778009737 | 28.89° C | 74% | 1009.7 hPa | 0 mm | - | 369 W/m² | - |
| 1778009435 | 29.44° C | 73% | 1009.7 hPa | 0 mm | - | 392 W/m² | - |
| 1778009133 | 28.89° C | 74% | 1009.7 hPa | 0 mm | - | 463 W/m² | - |
| 1778008831 | 28.89° C | 75% | 1009.7 hPa | 0 mm | - | 512 W/m² | - |
| 1778008529 | 28.33° C | 76% | 1009.7 hPa | 0 mm | - | 456 W/m² | - |
| 1778008226 | 28.89° C | 75% | 1009.7 hPa | 0 mm | - | 295 W/m² | - |
| 1778007921 | 28.89° C | 76% | 1009.7 hPa | 0 mm | - | 382 W/m² | - |
| 1778007617 | 28.33° C | 76% | 1010 hPa | 0 mm | - | 534 W/m² | - |
| 1778007314 | 28.33° C | 77% | 1010 hPa | 0 mm | - | 306 W/m² | - |
| 1778007010 | 28.33° C | 76% | 1010 hPa | 0 mm | - | 306 W/m² | - |
| 1778006707 | 28.89° C | 75% | 1010 hPa | 0 mm | - | 228 W/m² | - |
| 1778006404 | 28.33° C | 75% | 1010 hPa | 0 mm | - | 348 W/m² | - |
| 1778006101 | 28.33° C | 75% | 1010 hPa | 0 mm | - | 424 W/m² | - |
| 1778005797 | 28.33° C | 75% | 1010 hPa | 0 mm | - | 550 W/m² | - |
| 1778005495 | 28.33° C | 76% | 1010 hPa | 0 mm | - | 272 W/m² | - |
| 1778005190 | 27.78° C | 77% | 1010 hPa | 0 mm | - | 384 W/m² | - |
| 1778004888 | 27.78° C | 77% | 1010 hPa | 0 mm | - | 411 W/m² | - |
| 1778004585 | 27.78° C | 79% | 1010.4 hPa | 0 mm | - | 358 W/m² | - |
| 1778004281 | 27.78° C | 79% | 1010 hPa | 0 mm | - | 257 W/m² | - |
| 1778003978 | 27.78° C | 78% | 1010.4 hPa | 0 mm | - | 236 W/m² | - |
| 1778003674 | 27.22° C | 79% | 1010 hPa | 0 mm | - | 267 W/m² | - |
| 1778003371 | 27.22° C | 80% | 1010.4 hPa | 0 mm | - | 300 W/m² | - |
| 1778003068 | 27.22° C | 80% | 1010.4 hPa | 0 mm | - | 279 W/m² | - |
* Rain latest hour (hover to see other rain measurements)
** Current wind speed in m/s (hover to see current wind gust speed)